When you browse on this site, cookies collect data to enhance your experience and personalize the content and advertising you see.
Visit our Privacy Policy to learn more. By continuing to use the site, you agree to this use of cookies and data.
  • en Suisse
  • Liste des pays
  • À 7 jours
  • Température de l'eau
  • Carte satellitaire
  • Carte météo
  • Widgets météo
  • user-avatar
    Se connecter

    Météo par heure à Kovalevka

    Ce jour, 21 Février, Jeudi

    Heure Température Précipitation Vent Pression Humidité
    00:00 0°C° 0 mm 3 m/s 754 mmHg 82%
    01:00 0°C° 0 mm 3 m/s 753 mmHg 85%
    02:00 0°C° 0 mm 3 m/s 753 mmHg 88%
    03:00 0°C° 0 mm 3 m/s 752 mmHg 91%
    04:00 -1°C° 0 mm 4 m/s 752 mmHg 92%
    05:00 -1°C° 0 mm 4 m/s 752 mmHg 92%
    06:00 0°C° 0 mm 5 m/s 752 mmHg 93%
    07:00 0°C° 0.1 mm 5 m/s 752 mmHg 92%
    08:00 +1°C° 0.1 mm 5 m/s 751 mmHg 92%
    09:00 +1°C° 0.1 mm 5 m/s 751 mmHg 92%
    10:00 +2°C° 0.1 mm 6 m/s 751 mmHg 85%
    11:00 +3°C° 0.1 mm 6 m/s 751 mmHg 78%
    12:00 +4°C° 0.1 mm 7 m/s 751 mmHg 70%
    13:00 +4°C° 0 mm 7 m/s 750 mmHg 65%
    14:00 +5°C° 0 mm 8 m/s 750 mmHg 60%
    15:00 +5°C° 0 mm 9 m/s 750 mmHg 54%
    16:00 +4°C° 0.1 mm 8 m/s 750 mmHg 58%
    17:00 +2°C° 0.1 mm 8 m/s 750 mmHg 62%
    18:00 +2°C° 0.1 mm 7 m/s 750 mmHg 66%
    19:00 0°C° 0.1 mm 7 m/s 751 mmHg 66%
    20:00 -1°C° 0.1 mm 7 m/s 751 mmHg 66%
    21:00 -2°C° 0.1 mm 7 m/s 752 mmHg 66%
    22:00 -3°C° 0 mm 7 m/s 752 mmHg 63%
    23:00 -3°C° 0 mm 6 m/s 752 mmHg 60%

    Demain, 22 Février, Vendredi

    Heure Température Précipitation Vent Pression Humidité
    00:00 -4°C° 0 mm 6 m/s 753 mmHg 58%
    01:00 -4°C° 0 mm 6 m/s 753 mmHg 57%
    02:00 -4°C° 0 mm 6 m/s 753 mmHg 56%
    03:00 -5°C° 0 mm 6 m/s 753 mmHg 55%
    04:00 -5°C° 0 mm 6 m/s 753 mmHg 54%
    05:00 -5°C° 0 mm 6 m/s 753 mmHg 53%
    06:00 -5°C° 0 mm 6 m/s 753 mmHg 52%
    07:00 -5°C° 0 mm 6 m/s 754 mmHg 52%
    08:00 -5°C° 0 mm 6 m/s 754 mmHg 51%
    09:00 -5°C° 0 mm 5 m/s 754 mmHg 51%
    10:00 -5°C° 0 mm 5 m/s 754 mmHg 50%
    11:00 -4°C° 0 mm 5 m/s 754 mmHg 48%
    12:00 -4°C° 0 mm 5 m/s 755 mmHg 46%
    13:00 -4°C° 0 mm 5 m/s 754 mmHg 46%
    14:00 -2°C° 0 mm 4 m/s 754 mmHg 46%
    15:00 -2°C° 0 mm 4 m/s 754 mmHg 46%
    16:00 -2°C° 0 mm 3 m/s 754 mmHg 49%
    17:00 -2°C° 0 mm 3 m/s 754 mmHg 52%
    18:00 -3°C° 0 mm 2 m/s 754 mmHg 55%
    19:00 -4°C° 0.1 mm 3 m/s 754 mmHg 61%
    20:00 -5°C° 0.1 mm 3 m/s 755 mmHg 68%
    21:00 -7°C° 0.1 mm 4 m/s 755 mmHg 74%
    22:00 -7°C° 0.5 mm 4 m/s 755 mmHg 78%
    23:00 -8°C° 0.5 mm 5 m/s 755 mmHg 82%

    Après-demain, 23 Février, Samedi

    Heure Température Précipitation Vent Pression Humidité
    00:00 -8°C° 0.5 mm 5 m/s 755 mmHg 86%
    01:00 -9°C° 0.6 mm 6 m/s 755 mmHg 87%
    02:00 -10°C° 0.6 mm 6 m/s 755 mmHg 88%
    03:00 -10°C° 0.6 mm 6 m/s 755 mmHg 89%
    04:00 -10°C° 0.9 mm 6 m/s 755 mmHg 90%
    05:00 -10°C° 0.9 mm 6 m/s 755 mmHg 90%
    06:00 -11°C° 0.9 mm 7 m/s 755 mmHg 91%
    07:00 -11°C° 0.6 mm 7 m/s 755 mmHg 91%
    08:00 -11°C° 0.6 mm 7 m/s 756 mmHg 91%
    09:00 -11°C° 0.6 mm 7 m/s 756 mmHg 91%
    10:00 -11°C° 0.2 mm 7 m/s 756 mmHg 90%
    11:00 -9°C° 0.2 mm 7 m/s 757 mmHg 89%
    12:00 -9°C° 0.2 mm 7 m/s 757 mmHg 89%
    13:00 -9°C° 0.6 mm 6 m/s 757 mmHg 90%
    14:00 -9°C° 0.6 mm 6 m/s 757 mmHg 92%
    15:00 -9°C° 0.6 mm 6 m/s 757 mmHg 93%
    16:00 -9°C° 0.9 mm 6 m/s 757 mmHg 93%
    17:00 -9°C° 0.9 mm 6 m/s 758 mmHg 93%
    18:00 -9°C° 0.9 mm 6 m/s 758 mmHg 93%
    19:00 -9°C° 0.3 mm 6 m/s 758 mmHg 93%
    20:00 -9°C° 0.3 mm 6 m/s 759 mmHg 92%
    21:00 -8°C° 0.3 mm 5 m/s 759 mmHg 92%
    22:00 -8°C° 0.2 mm 5 m/s 759 mmHg 92%
    23:00 -8°C° 0.2 mm 5 m/s 759 mmHg 92%

    24 Février, Dimanche

    Heure Température Précipitation Vent Pression Humidité
    00:00 -8°C° 0.2 mm 5 m/s 759 mmHg 92%
    01:00 -8°C° 0.1 mm 4 m/s 759 mmHg 92%
    02:00 -8°C° 0.1 mm 4 m/s 759 mmHg 93%
    03:00 -8°C° 0.1 mm 4 m/s 759 mmHg 93%
    04:00 -8°C° 0 mm 4 m/s 759 mmHg 93%
    05:00 -7°C° 0 mm 3 m/s 759 mmHg 93%
    06:00 -7°C° 0 mm 3 m/s 759 mmHg 94%
    07:00 -7°C° 0 mm 3 m/s 760 mmHg 94%
    08:00 -6°C° 0 mm 3 m/s 760 mmHg 94%
    09:00 -6°C° 0 mm 3 m/s 760 mmHg 94%
    10:00 -6°C° 0 mm 3 m/s 761 mmHg 94%
    11:00 -4°C° 0 mm 2 m/s 761 mmHg 94%
    12:00 -3°C° 0 mm 2 m/s 761 mmHg 94%
    13:00 -3°C° 0.1 mm 2 m/s 761 mmHg 95%
    14:00 0°C° 0.1 mm 1 m/s 761 mmHg 95%
    15:00 0°C° 0.1 mm 1 m/s 761 mmHg 95%
    16:00 0°C° 0.1 mm 1 m/s 761 mmHg 95%
    17:00 -1°C° 0.1 mm 1 m/s 761 mmHg 95%
    18:00 -1°C° 0.1 mm 1 m/s 761 mmHg 95%
    19:00 -1°C° 0 mm 1 m/s 761 mmHg 95%
    20:00 -1°C° 0 mm 1 m/s 761 mmHg 95%
    21:00 -1°C° 0 mm 1 m/s 761 mmHg 96%
    22:00 -1°C° 0.2 mm 1 m/s 761 mmHg 96%
    23:00 -1°C° 0.2 mm 1 m/s 761 mmHg 96%

    25 Février, Lundi

    Heure Température Précipitation Vent Pression Humidité
    00:00 -1°C° 0.2 mm 1 m/s 761 mmHg 96%
    01:00 -2°C° 0.1 mm 1 m/s 760 mmHg 96%
    02:00 -2°C° 0.1 mm 1 m/s 760 mmHg 96%
    03:00 -2°C° 0.1 mm 1 m/s 760 mmHg 96%
    04:00 -3°C° 0 mm 0 m/s 760 mmHg 96%
    05:00 -3°C° 0 mm 0 m/s 759 mmHg 96%
    06:00 -3°C° 0 mm 0 m/s 759 mmHg 96%
    07:00 -3°C° 0 mm 0 m/s 759 mmHg 95%
    08:00 -2°C° 0 mm 0 m/s 759 mmHg 95%
    09:00 -2°C° 0 mm 0 m/s 759 mmHg 95%
    10:00 -1°C° 0.1 mm 1 m/s 758 mmHg 96%
    11:00 0°C° 0.1 mm 1 m/s 758 mmHg 97%
    12:00 -2°C° 0.1 mm 2 m/s 758 mmHg 98%
    13:00 -2°C° 0.1 mm 2 m/s 757 mmHg 98%
    14:00 -2°C° 0.1 mm 2 m/s 757 mmHg 98%
    15:00 -2°C° 0.1 mm 2 m/s 756 mmHg 98%
    16:00 -2°C° 0.1 mm 2 m/s 756 mmHg 96%
    17:00 -2°C° 0.1 mm 2 m/s 755 mmHg 94%
    18:00 -3°C° 0.1 mm 2 m/s 755 mmHg 92%
    19:00 -5°C° 0.1 mm 3 m/s 754 mmHg 91%
    20:00 -5°C° 0.1 mm 3 m/s 754 mmHg 91%
    21:00 -6°C° 0.1 mm 3 m/s 753 mmHg 90%
    22:00 -6°C° 0.1 mm 3 m/s 753 mmHg 89%
    23:00 -6°C° 0.1 mm 3 m/s 752 mmHg 89%

    26 Février, Mardi

    Heure Température Précipitation Vent Pression Humidité
    00:00 -5°C° 0.1 mm 2 m/s 752 mmHg 89%
    01:00 -5°C° 0.1 mm 2 m/s 751 mmHg 89%
    02:00 -7°C° 0.1 mm 3 m/s 751 mmHg 90%
    03:00 -7°C° 0.1 mm 3 m/s 750 mmHg 91%
    04:00 -7°C° 0 mm 3 m/s 750 mmHg 91%
    05:00 -7°C° 0 mm 3 m/s 750 mmHg 91%
    06:00 -8°C° 0 mm 4 m/s 750 mmHg 91%
    07:00 -8°C° 0.2 mm 5 m/s 749 mmHg 90%
    08:00 -7°C° 0.2 mm 5 m/s 749 mmHg 90%
    09:00 -8°C° 0.2 mm 6 m/s 749 mmHg 89%
    10:00 -8°C° 0 mm 7 m/s 749 mmHg 87%
    11:00 -7°C° 0 mm 7 m/s 748 mmHg 84%
    12:00 -7°C° 0 mm 7 m/s 748 mmHg 82%
    13:00 -7°C° 0 mm 7 m/s 747 mmHg 81%
    14:00 -7°C° 0 mm 7 m/s 746 mmHg 81%
    15:00 -7°C° 0 mm 7 m/s 746 mmHg 80%
    16:00 -7°C° 0.1 mm 7 m/s 745 mmHg 82%
    17:00 -7°C° 0.1 mm 7 m/s 745 mmHg 85%
    18:00 -7°C° 0.1 mm 7 m/s 744 mmHg 87%
    19:00 -6°C° 0.1 mm 7 m/s 744 mmHg 87%
    20:00 -6°C° 0.1 mm 7 m/s 744 mmHg 87%
    21:00 -6°C° 0.1 mm 7 m/s 744 mmHg 87%
    22:00 -6°C° 0 mm 7 m/s 743 mmHg 87%
    23:00 -6°C° 0 mm 6 m/s 743 mmHg 86%
    Voir plus